Location: Maccacari
(45.1333°N, 11.1333°E)
Time: 12:14:13
(UTC+00:00)

SR - Pass Details

Date: 25 June 2021
Orbit: 577 x 878 km, 66.7° (Epoch: 24 July)

Event Time Altitude Azimuth Distance (km) Brightness Sun altitude
Rises 22:42:26 0° 328° (NNW) 3,290 ? -21.0°
Reaches altitude 10° 22:44:58 10° 331° (NNW) 2,310 ? -21.1°
Maximum altitude 22:50:14 70° 55° (NE) 764 ? -21.2°
Enters shadow 22:51:54 40° 126° (SE) 1,021 ? -21.2°
